Time,TemperatureF,DewpointF,PressureIn,WindDirection,WindDirectionDegrees,WindSpeedMPH,WindSpeedGustMPH,Humidity,HourlyPrecipIn,Conditions,Clouds,dailyrainin,SoftwareType,DateUTC
2013-04-02 00:02:00,31.0,22.0,-100.00,NNE,17,14.0,17.0,70,0.00,,,-99.99,,2013-04-02 06:02:00,
2013-04-02 00:11:00,31.0,22.0,-100.00,NNE,14,12.0,15.0,70,0.00,,,-99.99,,2013-04-02 06:11:00,
2013-04-02 00:21:00,31.0,22.0,-100.00,North,11,14.0,16.0,70,0.00,,,-99.99,,2013-04-02 06:21:00,
2013-04-02 00:31:00,31.0,22.0,-100.00,North,8,13.0,17.0,69,0.00,,,-99.99,,2013-04-02 06:31:00,
2013-04-02 00:41:00,31.0,22.0,-100.00,North,8,14.0,17.0,69,0.00,,,-99.99,,2013-04-02 06:41:00,
2013-04-02 00:52:00,31.0,22.0,-100.00,NNE,13,15.0,18.0,69,0.00,,,-99.99,,2013-04-02 06:52:00,
2013-04-02 01:01:00,30.0,22.0,-100.00,NNE,23,13.0,16.0,71,0.00,,,-99.99,,2013-04-02 07:01:00,
2013-04-02 01:11:00,30.0,22.0,-100.00,NNE,16,13.0,17.0,72,0.00,,,-99.99,,2013-04-02 07:11:00,
2013-04-02 01:21:00,31.0,22.0,-100.00,NNE,14,16.0,17.0,71,0.00,,,-99.99,,2013-04-02 07:21:00,
2013-04-02 01:31:00,31.0,22.0,-100.00,NNE,13,15.0,17.0,70,0.00,,,-99.99,,2013-04-02 07:31:00,
2013-04-02 01:41:00,31.0,22.0,-100.00,North,8,15.0,17.0,69,0.00,,,-99.99,,2013-04-02 07:41:00,
2013-04-02 01:52:00,32.0,22.0,-100.00,North,7,14.0,17.0,68,0.00,,,-99.99,,2013-04-02 07:52:00,
2013-04-02 02:02:00,32.0,22.0,-100.00,NNE,17,16.0,18.0,69,0.00,,,-99.99,,2013-04-02 08:02:00,
2013-04-02 02:11:00,31.0,23.0,-100.00,NNE,20,12.0,13.0,71,0.00,,,-99.99,,2013-04-02 08:11:00,
2013-04-02 02:21:00,31.0,22.0,-100.00,NNE,17,13.0,16.0,70,0.00,,,-99.99,,2013-04-02 08:21:00,
2013-04-02 02:31:00,31.0,23.0,-100.00,NNE,23,11.0,12.0,73,0.00,,,-99.99,,2013-04-02 08:31:00,
2013-04-02 02:42:00,31.0,23.0,-100.00,NNE,23,11.0,13.0,72,0.00,,,-99.99,,2013-04-02 08:42:00,
2013-04-02 02:51:00,31.0,22.0,-100.00,NNE,25,11.0,12.0,71,0.00,,,-99.99,,2013-04-02 08:51:00,
2013-04-02 03:01:00,31.0,23.0,-100.00,NNE,21,12.0,15.0,71,0.00,,,-99.99,,2013-04-02 09:01:00,
2013-04-02 03:11:00,31.0,23.0,-100.00,NNE,18,12.0,16.0,71,0.00,,,-99.99,,2013-04-02 09:11:00,
2013-04-02 03:22:00,31.0,23.0,-100.00,NNE,20,11.0,14.0,72,0.00,,,-99.99,,2013-04-02 09:22:00,
2013-04-02 03:32:00,31.0,22.0,-100.00,NNE,17,12.0,16.0,72,0.00,,,-99.99,,2013-04-02 09:32:00,
2013-04-02 03:42:00,31.0,22.0,-100.00,NNE,21,12.0,15.0,72,0.00,,,-99.99,,2013-04-02 09:42:00,
2013-04-02 03:52:00,30.0,22.0,-100.00,NNE,27,12.0,14.0,72,0.00,,,-99.99,,2013-04-02 09:52:00,
2013-04-02 04:03:00,30.0,23.0,-100.00,NNE,21,12.0,14.0,73,0.00,,,-99.99,,2013-04-02 10:03:00,
2013-04-02 04:12:00,31.0,23.0,-100.00,NNE,27,14.0,16.0,72,0.00,,,-99.99,,2013-04-02 10:12:00,
2013-04-02 04:22:00,31.0,22.0,-100.00,NNE,30,14.0,16.0,70,0.00,,,-99.99,,2013-04-02 10:22:00,
2013-04-02 04:32:00,31.0,22.0,-100.00,NE,35,13.0,15.0,71,0.00,,,-99.99,,2013-04-02 10:32:00,
2013-04-02 04:41:00,30.0,22.0,-100.00,NE,34,13.0,16.0,73,0.00,,,-99.99,,2013-04-02 10:41:00,
2013-04-02 04:52:00,30.0,22.0,-100.00,NNE,31,13.0,15.0,74,0.00,,,-99.99,,2013-04-02 10:52:00,
2013-04-02 05:02:00,29.0,22.0,-100.00,NNE,30,12.0,14.0,76,0.00,,,-99.99,,2013-04-02 11:02:00,
2013-04-02 05:11:00,29.0,23.0,-100.00,NE,35,12.0,13.0,75,0.00,,,-99.99,,2013-04-02 11:11:00,
2013-04-02 05:22:00,29.0,22.0,-100.00,NE,35,12.0,14.0,76,0.00,,,-99.99,,2013-04-02 11:22:00,
2013-04-02 05:32:00,29.0,22.0,-100.00,NNE,27,12.0,13.0,75,0.00,,,-99.99,,2013-04-02 11:32:00,
2013-04-02 05:42:00,30.0,22.0,-100.00,NE,34,12.0,14.0,74,0.00,,,-99.99,,2013-04-02 11:42:00,
2013-04-02 05:52:00,29.0,22.0,-100.00,NNE,32,14.0,16.0,74,0.00,,,-99.99,,2013-04-02 11:52:00,
2013-04-02 06:02:00,30.0,22.0,-100.00,North,11,16.0,17.0,73,0.00,,,-99.99,,2013-04-02 12:02:00,
2013-04-02 06:11:00,29.0,22.0,-100.00,NNE,16,12.0,14.0,75,0.00,,,-99.99,,2013-04-02 12:11:00,
2013-04-02 06:21:00,28.0,22.0,-100.00,NNE,21,12.0,14.0,78,0.00,,,-99.99,,2013-04-02 12:21:00,
2013-04-02 06:32:00,27.0,22.0,-100.00,NNE,20,11.0,12.0,79,0.00,,,-99.99,,2013-04-02 12:32:00,
2013-04-02 06:41:00,27.0,22.0,-100.00,NNE,27,12.0,13.0,79,0.00,,,-99.99,,2013-04-02 12:41:00,
2013-04-02 06:52:00,27.0,22.0,-100.00,NE,34,11.0,12.0,80,0.00,,,-99.99,,2013-04-02 12:52:00,
2013-04-02 07:01:00,27.0,22.0,-100.00,NE,37,9.0,11.0,81,0.00,,,-99.99,,2013-04-02 13:01:00,
2013-04-02 07:11:00,27.0,22.0,-100.00,NE,44,11.0,12.0,81,0.00,,,-99.99,,2013-04-02 13:11:00,
2013-04-02 07:21:00,27.0,22.0,-100.00,NNE,21,9.0,12.0,80,0.00,,,-99.99,,2013-04-02 13:21:00,
2013-04-02 07:32:00,30.0,22.0,-100.00,NNE,16,12.0,16.0,72,0.00,,,-99.99,,2013-04-02 13:32:00,
2013-04-02 07:42:00,31.0,22.0,-100.00,North,359,20.0,24.0,68,0.00,,,-99.99,,2013-04-02 13:42:00,
2013-04-02 07:52:00,31.0,22.0,-100.00,North,8,14.0,19.0,69,0.00,,,-99.99,,2013-04-02 13:52:00,
2013-04-02 08:11:00,32.0,22.0,-100.00,North,1,19.0,21.0,66,0.00,,,-99.99,,2013-04-02 14:11:00,
2013-04-02 08:21:00,33.0,22.0,-100.00,North,357,20.0,24.0,64,0.00,,,-99.99,,2013-04-02 14:21:00,
2013-04-02 08:32:00,33.0,22.0,-100.00,North,1,22.0,27.0,63,0.00,,,-99.99,,2013-04-02 14:32:00,
2013-04-02 08:42:00,33.0,22.0,-100.00,North,7,19.0,23.0,64,0.00,,,-99.99,,2013-04-02 14:42:00,
2013-04-02 09:02:00,34.0,22.0,-100.00,North,7,16.0,20.0,61,0.00,,,-99.99,,2013-04-02 15:02:00,
2013-04-02 09:11:00,34.0,22.0,-100.00,North,7,17.0,21.0,61,0.00,,,-99.99,,2013-04-02 15:11:00,
2013-04-02 09:21:00,35.0,22.0,-100.00,North,357,21.0,26.0,58,0.00,,,-99.99,,2013-04-02 15:21:00,
2013-04-02 09:33:00,35.0,22.0,-100.00,North,3,19.0,24.0,58,0.00,,,-99.99,,2013-04-02 15:33:00,
2013-04-02 09:42:00,35.0,21.0,-100.00,North,357,26.0,29.0,55,0.00,,,-99.99,,2013-04-02 15:42:00,
2013-04-02 09:53:00,35.0,22.0,-100.00,NNE,16,26.0,30.0,56,0.00,,,-99.99,,2013-04-02 15:53:00,
2013-04-02 10:02:00,36.0,21.0,-100.00,NNE,14,25.0,32.0,55,0.00,,,-99.99,,2013-04-02 16:02:00,
2013-04-02 10:12:00,36.0,22.0,-100.00,North,356,22.0,28.0,56,0.00,,,-99.99,,2013-04-02 16:12:00,
2013-04-02 10:23:00,37.0,22.0,-100.00,North,357,22.0,30.0,55,0.00,,,-99.99,,2013-04-02 16:23:00,
2013-04-02 10:33:00,37.0,21.0,-100.00,North,1,24.0,31.0,53,0.00,,,-99.99,,2013-04-02 16:33:00,
2013-04-02 10:42:00,36.0,21.0,-100.00,North,3,26.0,32.0,53,0.00,,,-99.99,,2013-04-02 16:42:00,
2013-04-02 10:52:00,36.0,22.0,-100.00,North,11,22.0,26.0,57,0.00,,,-99.99,,2013-04-02 16:52:00,
2013-04-02 11:02:00,36.0,23.0,-100.00,NNE,18,24.0,30.0,57,0.00,,,-99.99,,2013-04-02 17:02:00,
2013-04-02 11:22:00,37.0,23.0,-100.00,NNE,20,24.0,28.0,57,0.00,,,-99.99,,2013-04-02 17:22:00,
2013-04-02 11:33:00,37.0,22.0,-100.00,NNE,14,25.0,31.0,56,0.00,,,-99.99,,2013-04-02 17:33:00,
2013-04-02 11:42:00,38.0,22.0,-100.00,North,7,24.0,32.0,53,0.00,,,-99.99,,2013-04-02 17:42:00,
2013-04-02 11:52:00,38.0,22.0,-100.00,NNE,24,22.0,32.0,52,0.00,,,-99.99,,2013-04-02 17:52:00,
2013-04-02 12:02:00,38.0,22.0,-100.00,NNE,21,24.0,29.0,53,0.00,,,-99.99,,2013-04-02 18:02:00,
2013-04-02 12:22:00,38.0,21.0,-100.00,North,359,21.0,27.0,51,0.00,,,-99.99,,2013-04-02 18:22:00,
2013-04-02 12:33:00,38.0,22.0,-100.00,North,3,22.0,28.0,52,0.00,,,-99.99,,2013-04-02 18:33:00,
2013-04-02 12:42:00,38.0,22.0,-100.00,North,11,24.0,30.0,51,0.00,,,-99.99,,2013-04-02 18:42:00,
2013-04-02 12:52:00,38.0,22.0,-100.00,NNE,14,24.0,29.0,52,0.00,,,-99.99,,2013-04-02 18:52:00,
2013-04-02 13:02:00,38.0,21.0,-100.00,NNE,16,22.0,27.0,49,0.00,,,-99.99,,2013-04-02 19:02:00,
2013-04-02 13:11:00,38.0,22.0,-100.00,NNE,16,24.0,28.0,50,0.00,,,-99.99,,2013-04-02 19:11:00,
2013-04-02 13:21:00,39.0,22.0,-100.00,NNE,13,18.0,24.0,50,0.00,,,-99.99,,2013-04-02 19:21:00,
2013-04-02 13:32:00,39.0,19.0,-100.00,NNE,16,19.0,24.0,44,0.00,,,-99.99,,2013-04-02 19:32:00,
2013-04-02 13:42:00,40.0,19.0,-100.00,NNE,16,21.0,26.0,43,0.00,,,-99.99,,2013-04-02 19:42:00,
2013-04-02 13:52:00,40.0,21.0,-100.00,North,11,20.0,24.0,47,0.00,,,-99.99,,2013-04-02 19:52:00,
2013-04-02 14:02:00,40.0,17.0,-100.00,North,8,19.0,21.0,39,0.00,,,-99.99,,2013-04-02 20:02:00,
2013-04-02 14:11:00,40.0,15.0,-100.00,NNE,14,21.0,26.0,35,0.00,,,-99.99,,2013-04-02 20:11:00,
2013-04-02 14:21:00,41.0,18.0,-100.00,NNE,13,18.0,24.0,39,0.00,,,-99.99,,2013-04-02 20:21:00,
2013-04-02 14:32:00,41.0,17.0,-100.00,NNE,20,21.0,24.0,38,0.00,,,-99.99,,2013-04-02 20:32:00,
2013-04-02 14:41:00,41.0,18.0,-100.00,NNE,21,21.0,26.0,39,0.00,,,-99.99,,2013-04-02 20:41:00,
2013-04-02 14:52:00,42.0,18.0,-100.00,North,7,17.0,22.0,37,0.00,,,-99.99,,2013-04-02 20:52:00,
2013-04-02 15:02:00,42.0,18.0,-100.00,NNE,16,16.0,23.0,38,0.00,,,-99.99,,2013-04-02 21:02:00,
2013-04-02 15:11:00,42.0,20.0,-100.00,NNE,20,19.0,25.0,41,0.00,,,-99.99,,2013-04-02 21:11:00,
2013-04-02 15:22:00,42.0,16.0,-100.00,NNE,27,16.0,18.0,34,0.00,,,-99.99,,2013-04-02 21:22:00,
2013-04-02 15:32:00,42.0,17.0,-100.00,NNE,24,19.0,23.0,35,0.00,,,-99.99,,2013-04-02 21:32:00,
2013-04-02 15:42:00,42.0,14.0,-100.00,NNE,16,16.0,19.0,32,0.00,,,-99.99,,2013-04-02 21:42:00,
2013-04-02 15:53:00,42.0,18.0,-100.00,NNE,14,16.0,20.0,37,0.00,,,-99.99,,2013-04-02 21:53:00,
2013-04-02 16:03:00,42.0,13.0,-100.00,NNE,14,17.0,21.0,30,0.00,,,-99.99,,2013-04-02 22:03:00,
2013-04-02 16:12:00,42.0,14.0,-100.00,NNE,28,12.0,16.0,32,0.00,,,-99.99,,2013-04-02 22:12:00,
2013-04-02 16:22:00,44.0,14.0,-100.00,NNE,28,16.0,19.0,30,0.00,,,-99.99,,2013-04-02 22:22:00,
2013-04-02 16:32:00,42.0,14.0,-100.00,NE,40,15.0,17.0,31,0.00,,,-99.99,,2013-04-02 22:32:00,
2013-04-02 16:42:00,43.0,14.0,-100.00,NE,42,12.0,16.0,31,0.00,,,-99.99,,2013-04-02 22:42:00,
2013-04-02 16:52:00,43.0,14.0,-100.00,NNE,13,12.0,14.0,31,0.00,,,-99.99,,2013-04-02 22:52:00,
2013-04-02 17:02:00,43.0,13.0,-100.00,NNE,31,15.0,17.0,29,0.00,,,-99.99,,2013-04-02 23:02:00,
2013-04-02 17:11:00,43.0,13.0,-100.00,NNE,32,13.0,21.0,29,0.00,,,-99.99,,2013-04-02 23:11:00,
2013-04-02 17:22:00,43.0,12.0,-100.00,North,6,11.0,17.0,29,0.00,,,-99.99,,2013-04-02 23:22:00,
2013-04-02 17:32:00,43.0,13.0,-100.00,NNE,21,12.0,14.0,29,0.00,,,-99.99,,2013-04-02 23:32:00,
2013-04-02 17:42:00,43.0,12.0,-100.00,North,360,16.0,19.0,28,0.00,,,-99.99,,2013-04-02 23:42:00,
2013-04-02 17:52:00,43.0,11.0,-100.00,NNE,30,14.0,17.0,27,0.00,,,-99.99,,2013-04-02 23:52:00,
2013-04-02 18:02:00,43.0,13.0,-100.00,North,11,14.0,17.0,30,0.00,,,-99.99,,2013-04-03 00:02:00,
2013-04-02 18:11:00,43.0,12.0,-100.00,NNE,20,14.0,19.0,28,0.00,,,-99.99,,2013-04-03 00:11:00,
2013-04-02 18:22:00,43.0,14.0,-100.00,NNE,20,9.0,14.0,30,0.00,,,-99.99,,2013-04-03 00:22:00,
2013-04-02 18:32:00,42.0,13.0,-100.00,NNE,16,11.0,14.0,30,0.00,,,-99.99,,2013-04-03 00:32:00,
2013-04-02 18:43:00,42.0,11.0,-100.00,NNE,28,12.0,14.0,28,0.00,,,-99.99,,2013-04-03 00:43:00,
2013-04-02 18:52:00,42.0,13.0,-100.00,NNE,23,11.0,14.0,30,0.00,,,-99.99,,2013-04-03 00:52:00,
2013-04-02 19:02:00,42.0,11.0,-100.00,NNE,16,12.0,15.0,28,0.00,,,-99.99,,2013-04-03 01:02:00,
2013-04-02 19:11:00,41.0,10.0,-100.00,NNE,16,12.0,16.0,27,0.00,,,-99.99,,2013-04-03 01:11:00,
2013-04-02 19:21:00,41.0,12.0,-100.00,NE,34,10.0,12.0,31,0.00,,,-99.99,,2013-04-03 01:21:00,
2013-04-02 19:32:00,40.0,13.0,-100.00,NNE,31,9.0,11.0,33,0.00,,,-99.99,,2013-04-03 01:32:00,
2013-04-02 19:41:00,39.0,15.0,-100.00,NNE,24,10.0,12.0,36,0.00,,,-99.99,,2013-04-03 01:41:00,
2013-04-02 19:52:00,39.0,14.0,-100.00,NNE,16,7.0,9.0,37,0.00,,,-99.99,,2013-04-03 01:52:00,
2013-04-02 20:02:00,37.0,14.0,-100.00,NNE,17,6.0,7.0,39,0.00,,,-99.99,,2013-04-03 02:02:00,
2013-04-02 20:11:00,37.0,14.0,-100.00,NNE,13,6.0,6.0,39,0.00,,,-99.99,,2013-04-03 02:11:00,
2013-04-02 20:21:00,36.0,14.0,-100.00,NNE,13,6.0,7.0,41,0.00,,,-99.99,,2013-04-03 02:21:00,
2013-04-02 20:33:00,35.0,15.0,-100.00,NNE,13,6.0,7.0,44,0.00,,,-99.99,,2013-04-03 02:33:00,
2013-04-02 20:42:00,34.0,15.0,-100.00,North,8,4.0,6.0,46,0.00,,,-99.99,,2013-04-03 02:42:00,
2013-04-02 20:52:00,33.0,15.0,-100.00,North,353,3.0,6.0,48,0.00,,,-99.99,,2013-04-03 02:52:00,
2013-04-02 21:02:00,33.0,15.0,-100.00,North,8,3.0,4.0,45,0.00,,,-99.99,,2013-04-03 03:02:00,
2013-04-02 21:11:00,33.0,15.0,-100.00,North,7,3.0,5.0,47,0.00,,,-99.99,,2013-04-03 03:11:00,
2013-04-02 21:21:00,33.0,15.0,-100.00,North,7,4.0,6.0,47,0.00,,,-99.99,,2013-04-03 03:21:00,
2013-04-02 21:34:00,32.0,16.0,-100.00,North,352,2.0,4.0,51,0.00,,,-99.99,,2013-04-03 03:34:00,
2013-04-02 21:42:00,32.0,16.0,-100.00,SSW,193,3.0,4.0,50,0.00,,,-99.99,,2013-04-03 03:42:00,
2013-04-02 21:53:00,33.0,15.0,-100.00,West,264,5.0,7.0,48,0.00,,,-99.99,,2013-04-03 03:53:00,
2013-04-02 22:02:00,33.0,15.0,-100.00,West,278,7.0,7.0,47,0.00,,,-99.99,,2013-04-03 04:02:00,
2013-04-02 22:12:00,33.0,14.0,-100.00,WNW,299,7.0,9.0,45,0.00,,,-99.99,,2013-04-03 04:12:00,
2013-04-02 22:23:00,34.0,12.0,-100.00,NW,319,5.0,6.0,39,0.00,,,-99.99,,2013-04-03 04:23:00,
2013-04-02 22:32:00,33.0,13.0,-100.00,NW,305,7.0,9.0,44,0.00,,,-99.99,,2013-04-03 04:32:00,
2013-04-02 22:42:00,33.0,11.0,-100.00,WNW,299,7.0,9.0,40,0.00,,,-99.99,,2013-04-03 04:42:00,
2013-04-02 22:53:00,33.0,11.0,-100.00,NW,315,6.0,6.0,40,0.00,,,-99.99,,2013-04-03 04:53:00,
2013-04-02 23:02:00,31.0,15.0,-100.00,NW,315,2.0,6.0,52,0.00,,,-99.99,,2013-04-03 05:02:00,
2013-04-02 23:12:00,30.0,13.0,-100.00,NW,316,4.0,4.0,49,0.00,,,-99.99,,2013-04-03 05:12:00,
2013-04-02 23:22:00,29.0,14.0,-100.00,West,268,1.0,2.0,53,0.00,,,-99.99,,2013-04-03 05:22:00,
2013-04-02 23:32:00,29.0,17.0,-100.00,NW,309,1.0,2.0,61,0.00,,,-99.99,,2013-04-03 05:32:00,
2013-04-02 23:41:00,27.0,16.0,-100.00,NNW,330,1.0,2.0,63,0.00,,,-99.99,,2013-04-03 05:41:00,
2013-04-02 23:52:00,29.0,13.0,-100.00,NW,320,2.0,4.0,51,0.00,,,-99.99,,2013-04-03 05:52:00,